Regional Weather Roundup
Issued by NWS

Home | Current Version | Previous Version | Graphics & Text | Print | Product List | Glossary On
Versions: 1 2 3 4 5 6 7 8 9 10 11 12 13 14 15 16 17 18 19 20 21 22 23 24 25 26 27 28 29 30 31 32 33 34 35 36 37 38 39 40 41 42 43 44 45 46 47 48 49 50
000
ASUS43 KMKX 091521
RWRWI

WISCONSIN REGIONAL WEATHER ROUNDUP
NATIONAL WEATHER SERVICE MILWAUKEE/SULLIVAN WI
900 AM CST FRI DEC 09 2016

NOTE: "FAIR" INDICATES FEW OR NO CLOUDS BELOW 12,000 FEET WITH NO
SIGNIFICANT WEATHER AND/OR OBSTRUCTIONS TO VISIBILITY.

WIZ001-002-006>008-014>016-023>028-091600-
NORTHWEST WISCONSIN

CITY           SKY/WX    TMP DP  RH WIND       PRES   REMARKS
SUPERIOR ARPT  CLOUDY    15   7  72 N10       30.53R WCI   2
ASHLAND        CLOUDY    15   7  70 NW8       30.50R WCI   4
HAYWARD        CLOUDY    14   7  73 CALM      30.48R
SIREN          LGT SNOW  15  11  85 NW7       30.52S WCI   5
CUMBERLAND     LGT SNOW  14  10  85 W6        30.49S WCI   5
RICE LAKE      CLOUDY    14  11  87 W3        30.52R
CHETEK         CLOUDY    13  10  86 CALM      30.51S
LADYSMITH      CLOUDY    14   9  79 W6        30.50R WCI   5
EAU CLAIRE     CLOUDY    14  11  87 W3        30.53R
MENOMONIE      CLOUDY    17  13  84 W6        30.54R WCI   8
NEW RICHMOND   LGT SNOW  15  11  84 W6        30.53R WCI   6
OSCEOLA        LGT SNOW  16  12  84 W3        30.56S
$$

WIZ003>005-009-010-017-018-091600-
NORTH CENTRAL WISCONSIN

CITY           SKY/WX    TMP DP  RH WIND       PRES   REMARKS
MANITOWISH WTR CLOUDY    13   9  83 W9        30.39R WCI   1
ARBOR VITAE    SUNNY     17  10  76 NW9       30.39R WCI   5
WOODRUFF       SUNNY     17  10  76 NW9       30.39R WCI   5
RHINELANDER    SUNNY     13   8  81 W9        30.40R WCI   1
EAGLE RIVER    FLURRIES  14   8  76 NW8       30.37R WCI   3
LAND O LAKES   LGT SNOW  15  10  83 W5        30.38R WCI   7
PHILLIPS       CLOUDY    11   8  86 W5        30.44R WCI   3
TOMAHAWK       FLURRIES  11   8  87 W6        30.43R WCI   2
MEDFORD        CLOUDY    10   6  84 NW6       30.44R WCI   0
MERRILL        SUNNY     13   8  79 NW8       30.45R WCI   2
$$

WIZ029-030-035-036-043>047-091600-
CENTRAL WISCONSIN

CITY           SKY/WX    TMP DP  RH WIND       PRES   REMARKS
WAUSAU         SUNNY     13   9  84 W10       30.45R WCI   0
MOSINEE        MOSUNNY   12  10  92 NW8       30.47R WCI   1
MARSHFIELD     CLOUDY    11   6  81 NW8       30.47R WCI  -1
STEVENS POINT  SUNNY     13   8  81 NW7       30.48R WCI   3
WAUPACA        SUNNY     21  12  68 CALM      30.48R
WAUTOMA        NOT AVBL
WISC RAPIDS    SUNNY     14   9  80 NW8       30.51R WCI   3
CAMP DOUGLAS   MOSUNNY   18  10  73 NW12      30.52R WCI   5
$$

WIZ011>013-019>022-031-037>040-048>050-091600-
NORTHEAST WISCONSIN

CITY           SKY/WX    TMP DP  RH WIND       PRES   REMARKS
ANTIGO         SUNNY     12   8  81 NW10      30.41R WCI  -1
SHAWANO        SUNNY     21  10  63 NW8       30.46R WCI  12
OCONTO         SUNNY     20  12  70 W9        30.43R WCI  10
STURGEON BAY   SUNNY     22  11  62 NW15G22   30.42R WCI   9
GREEN BAY      SUNNY     24  14  65 W13       30.45R WCI  12
MANITOWOC      CLOUDY    23  15  71 W12       30.45R WCI  12
APPLETON       SUNNY     19   9  63 NW10      30.43R WCI   8
CLINTONVILLE   SUNNY     19   9  63 NW12      30.46R WCI   7
OSHKOSH        SUNNY     20  12  71 W13       30.47R WCI   7
$$

WIZ032>034-041-042-053>061-091600-
SOUTHWEST WISCONSIN

CITY           SKY/WX    TMP DP  RH WIND       PRES   REMARKS
LA CROSSE      PTSUNNY   20  11  68 N10       30.57R WCI   9
SPARTA         PTSUNNY   18  11  74 NW12      30.55R WCI   6
VIROQUA        CLOUDY    18  14  86 NW6       30.51R WCI   9
BOSCOBEL       CLOUDY    19  13  77 W6        30.57R WCI  11
PRAIRIE DU CHI SUNNY     17  10  75 NW7       30.58R WCI   7
PLATTEVILLE    SUNNY     15  13  92 W7        30.54R WCI   5
$$

WIZ056-057-062-063-064-067-068-091600-
SOUTH CENTRAL WISCONSIN

CITY           SKY/WX    TMP DP  RH WIND       PRES   REMARKS
REEDSBURG      SUNNY     18  11  74 NW7       30.52R WCI   8
BARABOO/DELLS  SUNNY     18  10  72 NW10      30.52R WCI   6
LONE ROCK      MOSUNNY   20  11  68 NW10      30.55R WCI   9
MINERAL POINT  FLURRIES  19  16  86 W9        30.51S WCI   9
MADISON        MOSUNNY   20  11  68 NW12      30.52R WCI   8
MIDDLETON      SUNNY     22  13  70 NW9       30.52R WCI  11
WATERTOWN      SUNNY     20  13  76 NW8       30.50R WCI  10
MONROE         FLURRIES  21  16  79 W8        30.51R WCI  12
JANESVILLE     LGT SNOW  23  18  80 W9        30.51R WCI  13
$$

WIZ051-052-058>065-066-070>072-091600-
SOUTHEAST WISCONSIN

CITY           SKY/WX    TMP DP  RH WIND       PRES   REMARKS
MILWAUKEE      MOSUNNY   23  12  62 NW13      30.48R WCI  11
WAUKESHA       SUNNY     19  12  73 NW14G20   30.49R WCI   6
MILWAUKEE/TIMM SUNNY     21  12  68 NW14      30.49R WCI   8
RACINE         SUNNY     23  13  65 NW10G20   30.50R WCI  12
BURLINGTON     SUNNY     28  19  70 NW15      30.50R WCI  16
KENOSHA        SUNNY     23  14  68 NW14G20   30.49R WCI  11
FOND DU LAC    SUNNY     20  11  68 W13       30.48R WCI   7
SHEBOYGAN      CLOUDY    21  15  78 W9        30.45R WCI  11
WEST BEND      SUNNY     21  14  73 NW8       30.47R WCI  12
JUNEAU         SUNNY     18  11  74 W8        30.50R WCI   8
$$

LSZ147-162-091600-
LAKE SUPERIOR

STATION/POSITION TIME  TEMP    WIND        PRES    WAVE
                       AIR SEA DIR/SP/G            HT/PER
                 (UTC) (F)     (DEG/KT/KT) (MB)    (FT/S)
DEVILS ISLAND    1500   18     310/ 15/ 20 1033.4R
PORT WING        1430   17     300/ 11/ 20 1033.2R
SAXON HARBOR     1440   18     270/  6/ 10 1031.5R
$$

LMZ867-665-643>646-091600-
LAKE MICHIGAN

STATION/POSITION TIME  TEMP    WIND        PRES    WAVE
                       AIR SEA DIR/SP/G            HT/PER
                 (UTC) (F)     (DEG/KT/KT) (MB)    (FT/S)
CHAMBERS ISLAND  1440   23     290/  6/ 14 1028.4R
NORTHPORT PIER   1446   26     310/ 17/ 25 1028.4R
SISTER BAY       1450   24     320/ 19/ 22   N/A
ALGOMA LAKESHORE 1436          310/ 13/ 16   N/A
KEWAUNEE LAKESHO 1500   23     300/ 12/ 18 1029.8
SHEBOYGAN LAKESH 1500   22     270/  9/ 11 1032.3R
PORT WASHINGTON  1430   22     290/  7/ 12 1032.8R
MILWAUKEE LAKESH 1500   22     300/ 11/ 12   N/A
KENOSHA   LAKESH 1500   23     310/ 16/ 21 1032.2
$$

TC  - TEMPERATURE IN CELSIUS
VSB - VISIBILITY IN STATUTE MILES
WCI - WIND CHILL INDEX
HX  - HEAT INDEX




USA.gov is the U.S. government's official web portal to all federal, state and local government web resources and services.